Meteo Giornale » Osservazioni meteo Italia » Messina

ore: 07:55 - Osservazioni Meteo Messina
Lat. 38° 12' N Lon. 15° 33' E Alt. 59 metri s.l.m.

nuvoloso Europe/Rome

24 °C

Nuvoloso

Temp. 24 Ore

22 °C

27 °C

Nord/NOvest

7.4 Km/h

Dew point 20 °C

Umidità 78 %

Visibilità  10 Km

Il sole sorge alle ore 05:33

Il sole tramonta alle ore 20:26

Data e Ora Cielo e Fenomeni T °C DP °C Um. % Pres. hPa Vis. km Vento km/h
Oggi h: 07:55 nuvoloso Nuvoloso 24 20 78 1015 10 N/NO 7.4
Oggi h: 06:55 nuvoloso Nuvoloso 23 20 83 1015 10 N 3.7
Oggi h: 05:55 poco_nuvoloso Poco Nuvoloso 22 20 88 1015 10 N 1.8
Oggi h: 04:55 poco_nuvoloso Poco Nuvoloso 22 20 88 1015 10 N 3.7
Oggi h: 03:55 poco_nuvoloso Poco Nuvoloso 22 19 83 1015 10 N 5.5
Oggi h: 02:55 poco_nuvoloso Poco Nuvoloso 23 20 83 1015 10 N 3.7
Oggi h: 01:55 poco_nuvoloso Poco Nuvoloso 23 20 83 1015 10 N/NO 7.4
Oggi h: 00:55 poco_nuvoloso Poco Nuvoloso 23 20 83 1016 10 N 5.5
Ieri h: 23:55 poco_nuvoloso Poco Nuvoloso 23 20 83 1016 10 N 3.7
Ieri h: 22:55 poco_nuvoloso Poco Nuvoloso 23 20 83 1016 10 N/NO 7.4
Ieri h: 21:55 poco_nuvoloso Poco Nuvoloso 23 19 78 1016 10 O/NO 9.3
Ieri h: 20:55 poco_nuvoloso Poco Nuvoloso 24 18 69 1015 10 N 5.5
Ieri h: 19:55 poco_nuvoloso Poco Nuvoloso 25 18 65 1015 10 N 3.7
Ieri h: 18:55 poco_nuvoloso Poco Nuvoloso 26 18 61 1015 10 N 5.5
Ieri h: 16:55 nuvoloso Nuvoloso 26 20 69 1016 10 E 13
Ieri h: 15:55 nuvoloso Nuvoloso 27 18 57 1016 10 E/NE 14.8
Ieri h: 12:55 nuvoloso Nuvoloso 26 20 69 1017 10 E 16.7
Ieri h: 11:55 poco_nuvoloso Poco Nuvoloso 25 19 69 1017 10 E 14.8
Ieri h: 10:55 poco_nuvoloso Poco Nuvoloso 25 17 61 1017 10 SE 7.4
Ieri h: 09:55 poco_nuvoloso Poco Nuvoloso 24 17 64 1017 10 SE 7.4